• In Kazakhstan
  • List of Countries
  • For 7 days
  • Water Temperature
  • Satellite Maps
  • Weather Map
  • News
  • Weather Widgets
  • user-avatar
    Login

    Hourly Weather Rochester

    Today, 19 September, Tuesday

    Time Temperature Precipitation Wind Pressure Humidity
    00:00 +16°C° 0 mm 2 mps 733 mmHg 95%
    01:00 +16°C° 0 mm 2 mps 733 mmHg 95%
    02:00 +16°C° 0 mm 2 mps 733 mmHg 96%
    03:00 +16°C° 0 mm 2 mps 733 mmHg 96%
    04:00 +15°C° 0 mm 2 mps 732 mmHg 97%
    05:00 +15°C° 0 mm 2 mps 732 mmHg 97%
    06:00 +15°C° 0 mm 2 mps 732 mmHg 97%
    07:00 +16°C° 0 mm 3 mps 732 mmHg 94%
    08:00 +17°C° 0 mm 3 mps 732 mmHg 92%
    09:00 +19°C° 0 mm 4 mps 732 mmHg 89%
    10:00 +21°C° 0 mm 4 mps 732 mmHg 82%
    11:00 +23°C° 0 mm 5 mps 732 mmHg 76%
    12:00 +24°C° 0 mm 6 mps 731 mmHg 70%
    13:00 +26°C° 0 mm 6 mps 731 mmHg 68%
    14:00 +26°C° 0 mm 6 mps 730 mmHg 67%
    15:00 +27°C° 0 mm 6 mps 729 mmHg 66%
    16:00 +26°C° 0 mm 6 mps 729 mmHg 70%
    17:00 +25°C° 0 mm 5 mps 729 mmHg 74%
    18:00 +23°C° 0 mm 5 mps 728 mmHg 78%
    19:00 +23°C° 0 mm 6 mps 728 mmHg 76%
    20:00 +22°C° 0 mm 6 mps 728 mmHg 74%
    21:00 +22°C° 0 mm 7 mps 728 mmHg 72%
    22:00 +22°C° 0.2 mm 7 mps 728 mmHg 74%
    23:00 +22°C° 0.2 mm 7 mps 727 mmHg 77%

    Tomorrow, 20 September, Wednesday

    Time Temperature Precipitation Wind Pressure Humidity
    00:00 +21°C° 0.2 mm 7 mps 726 mmHg 79%
    01:00 +21°C° 0.6 mm 8 mps 726 mmHg 81%
    02:00 +21°C° 0.6 mm 8 mps 726 mmHg 83%
    03:00 +21°C° 0.6 mm 8 mps 725 mmHg 86%
    04:00 +21°C° 0.6 mm 8 mps 726 mmHg 88%
    05:00 +21°C° 0.6 mm 7 mps 726 mmHg 90%
    06:00 +21°C° 0.6 mm 7 mps 726 mmHg 92%
    07:00 +21°C° 0.1 mm 6 mps 727 mmHg 91%
    08:00 +21°C° 0.1 mm 6 mps 727 mmHg 90%
    09:00 +22°C° 0.1 mm 6 mps 728 mmHg 89%
    10:00 +22°C° 0.1 mm 5 mps 728 mmHg 81%
    11:00 +22°C° 0.1 mm 5 mps 729 mmHg 74%
    12:00 +22°C° 0.1 mm 5 mps 730 mmHg 67%
    13:00 +22°C° 0 mm 4 mps 730 mmHg 62%
    14:00 +23°C° 0 mm 4 mps 730 mmHg 58%
    15:00 +23°C° 0 mm 4 mps 730 mmHg 54%
    16:00 +21°C° 0 mm 3 mps 731 mmHg 58%
    17:00 +20°C° 0 mm 2 mps 731 mmHg 63%
    18:00 +19°C° 0 mm 1 mps 731 mmHg 68%
    19:00 +18°C° 0 mm 1 mps 732 mmHg 70%
    20:00 +15°C° 0 mm 1 mps 732 mmHg 72%
    21:00 +13°C° 0 mm 0 mps 733 mmHg 74%
    22:00 +14°C° 0 mm 1 mps 733 mmHg 73%
    23:00 +14°C° 0 mm 1 mps 733 mmHg 72%

    Day after tomorrow, 21 September, Thursday

    Time Temperature Precipitation Wind Pressure Humidity
    00:00 +13°C° 0 mm 1 mps 734 mmHg 70%
    01:00 +13°C° 0 mm 1 mps 733 mmHg 71%
    02:00 +13°C° 0 mm 2 mps 733 mmHg 71%
    03:00 +13°C° 0 mm 2 mps 733 mmHg 71%
    04:00 +11°C° 0 mm 3 mps 733 mmHg 74%
    05:00 +11°C° 0 mm 3 mps 733 mmHg 77%
    06:00 +11°C° 0 mm 3 mps 733 mmHg 79%
    07:00 +13°C° 0 mm 4 mps 734 mmHg 73%
    08:00 +17°C° 0 mm 4 mps 734 mmHg 66%
    09:00 +19°C° 0 mm 5 mps 734 mmHg 59%
    10:00 +21°C° 0 mm 5 mps 733 mmHg 56%
    11:00 +23°C° 0 mm 6 mps 733 mmHg 53%
    12:00 +26°C° 0 mm 6 mps 732 mmHg 50%
    13:00 +27°C° 0 mm 6 mps 732 mmHg 55%
    14:00 +28°C° 0 mm 6 mps 731 mmHg 59%
    15:00 +29°C° 0 mm 7 mps 730 mmHg 64%
    16:00 +29°C° 0 mm 6 mps 730 mmHg 69%
    17:00 +28°C° 0 mm 5 mps 730 mmHg 74%
    18:00 +27°C° 0 mm 4 mps 730 mmHg 79%
    19:00 +27°C° 0.1 mm 5 mps 730 mmHg 78%
    20:00 +27°C° 0.1 mm 5 mps 730 mmHg 76%
    21:00 +27°C° 0.1 mm 6 mps 731 mmHg 75%
    22:00 +27°C° 0.2 mm 6 mps 731 mmHg 75%
    23:00 +26°C° 0.2 mm 6 mps 731 mmHg 75%

    22 September, Friday

    Time Temperature Precipitation Wind Pressure Humidity
    00:00 +26°C° 0.2 mm 6 mps 731 mmHg 75%
    01:00 +26°C° 0.3 mm 6 mps 730 mmHg 77%
    02:00 +24°C° 0.3 mm 6 mps 730 mmHg 79%
    03:00 +24°C° 0.3 mm 6 mps 730 mmHg 81%
    04:00 +23°C° 1 mm 5 mps 730 mmHg 83%
    05:00 +23°C° 1 mm 5 mps 730 mmHg 86%
    06:00 +22°C° 1 mm 5 mps 730 mmHg 88%
    07:00 +23°C° 0 mm 6 mps 731 mmHg 85%
    08:00 +26°C° 0 mm 7 mps 731 mmHg 81%
    09:00 +27°C° 0 mm 8 mps 731 mmHg 77%
    10:00 +27°C° 0.1 mm 8 mps 731 mmHg 76%
    11:00 +28°C° 0.1 mm 8 mps 731 mmHg 74%
    12:00 +28°C° 0.1 mm 7 mps 730 mmHg 72%
    13:00 +30°C° 0 mm 7 mps 730 mmHg 68%
    14:00 +32°C° 0 mm 8 mps 730 mmHg 63%
    15:00 +33°C° 0 mm 8 mps 730 mmHg 58%
    16:00 +32°C° 0 mm 7 mps 730 mmHg 60%
    17:00 +30°C° 0 mm 6 mps 730 mmHg 62%
    18:00 +29°C° 0 mm 6 mps 730 mmHg 64%
    19:00 +29°C° 0 mm 6 mps 730 mmHg 62%
    20:00 +29°C° 0 mm 6 mps 730 mmHg 61%
    21:00 +29°C° 0 mm 6 mps 731 mmHg 59%
    22:00 +28°C° 0.5 mm 5 mps 731 mmHg 66%
    23:00 +26°C° 0.5 mm 4 mps 731 mmHg 72%

    23 September, Saturday

    Time Temperature Precipitation Wind Pressure Humidity
    00:00 +25°C° 0.5 mm 3 mps 732 mmHg 79%
    01:00 +25°C° 0.1 mm 3 mps 732 mmHg 81%
    02:00 +24°C° 0.1 mm 3 mps 732 mmHg 83%
    03:00 +24°C° 0.1 mm 3 mps 732 mmHg 85%
    04:00 +23°C° 0.1 mm 4 mps 732 mmHg 87%
    05:00 +22°C° 0.1 mm 4 mps 732 mmHg 89%
    06:00 +22°C° 0.1 mm 4 mps 732 mmHg 91%
    07:00 +23°C° 0 mm 4 mps 732 mmHg 86%
    08:00 +25°C° 0 mm 5 mps 732 mmHg 81%
    09:00 +27°C° 0 mm 6 mps 733 mmHg 77%
    10:00 +28°C° 0.1 mm 6 mps 733 mmHg 71%
    11:00 +30°C° 0.1 mm 6 mps 733 mmHg 65%
    12:00 +32°C° 0.1 mm 7 mps 732 mmHg 59%
    13:00 +32°C° 0.1 mm 6 mps 732 mmHg 59%
    14:00 +33°C° 0.1 mm 6 mps 732 mmHg 59%
    15:00 +33°C° 0.1 mm 5 mps 732 mmHg 59%
    16:00 +30°C° 0.2 mm 5 mps 732 mmHg 63%
    17:00 +29°C° 0.2 mm 4 mps 732 mmHg 68%
    18:00 +27°C° 0.2 mm 3 mps 732 mmHg 73%
    19:00 +27°C° 0.1 mm 3 mps 732 mmHg 72%
    20:00 +27°C° 0.1 mm 4 mps 732 mmHg 71%
    21:00 +26°C° 0.1 mm 4 mps 732 mmHg 70%
    22:00 +26°C° 0 mm 3 mps 732 mmHg 72%
    23:00 +25°C° 0 mm 3 mps 732 mmHg 74%

    24 September, Sunday

    Time Temperature Precipitation Wind Pressure Humidity
    00:00 +24°C° 0 mm 3 mps 732 mmHg 76%
    01:00 +24°C° 0 mm 3 mps 732 mmHg 77%
    02:00 +24°C° 0 mm 3 mps 732 mmHg 79%
    03:00 +22°C° 0 mm 3 mps 732 mmHg 81%
    04:00 +22°C° 0 mm 4 mps 732 mmHg 81%
    05:00 +22°C° 0 mm 4 mps 732 mmHg 81%
    06:00 +22°C° 0 mm 4 mps 732 mmHg 81%
    07:00 +23°C° 0.1 mm 5 mps 733 mmHg 79%
    08:00 +25°C° 0.1 mm 5 mps 733 mmHg 77%
    09:00 +26°C° 0.1 mm 6 mps 733 mmHg 74%
    10:00 +27°C° 0.1 mm 6 mps 733 mmHg 70%
    11:00 +28°C° 0.1 mm 5 mps 733 mmHg 67%
    12:00 +30°C° 0.1 mm 5 mps 733 mmHg 63%
    13:00 +30°C° 0.2 mm 5 mps 733 mmHg 63%
    14:00 +30°C° 0.2 mm 4 mps 733 mmHg 63%
    15:00 +30°C° 0.2 mm 3 mps 733 mmHg 63%
    16:00 +28°C° 0.6 mm 3 mps 733 mmHg 69%
    17:00 +26°C° 0.6 mm 3 mps 733 mmHg 76%
    18:00 +25°C° 0.6 mm 2 mps 733 mmHg 83%
    19:00 +24°C° 0.5 mm 2 mps 733 mmHg 86%
    20:00 +23°C° 0.5 mm 2 mps 733 mmHg 88%
    21:00 +21°C° 0.5 mm 3 mps 733 mmHg 91%
    22:00 +20°C° 0.4 mm 2 mps 733 mmHg 93%
    23:00 +20°C° 0.4 mm 2 mps 733 mmHg 94%
    Show more